EN

Hourly Weather Novosaitovo

Today, 16 May, Sunday

Time Temperature Precipitation Wind Pressure Humidity
00:00 +18°C° 0 mm 1 mps 725 mmHg 68%
01:00 +16°C° 0 mm 1 mps 724 mmHg 69%
02:00 +16°C° 0 mm 1 mps 725 mmHg 69%
03:00 +16°C° 0 mm 1 mps 725 mmHg 68%
04:00 +16°C° 0 mm 1 mps 725 mmHg 68%
05:00 +19°C° 0 mm 1 mps 725 mmHg 62%
06:00 +20°C° 0 mm 1 mps 725 mmHg 56%
07:00 +22°C° 0 mm 1 mps 725 mmHg 50%
08:00 +24°C° 0 mm 1 mps 725 mmHg 43%
09:00 +26°C° 0 mm 1 mps 726 mmHg 36%
10:00 +29°C° 0 mm 1 mps 726 mmHg 29%
11:00 +29°C° 0 mm 2 mps 725 mmHg 28%
12:00 +30°C° 0 mm 2 mps 725 mmHg 26%
13:00 +30°C° 0 mm 2 mps 725 mmHg 24%
14:00 +30°C° 0 mm 3 mps 725 mmHg 25%
15:00 +30°C° 0 mm 3 mps 725 mmHg 25%
16:00 +29°C° 0 mm 3 mps 725 mmHg 26%
17:00 +27°C° 0 mm 3 mps 724 mmHg 34%
18:00 +25°C° 0 mm 2 mps 724 mmHg 43%
19:00 +23°C° 0 mm 1 mps 724 mmHg 51%
20:00 +22°C° 0 mm 1 mps 724 mmHg 53%
21:00 +20°C° 0 mm 1 mps 724 mmHg 55%
22:00 +19°C° 0 mm 1 mps 724 mmHg 57%
23:00 +19°C° 0 mm 1 mps 724 mmHg 58%

Tomorrow, 17 May, Monday

Time Temperature Precipitation Wind Pressure Humidity
00:00 +18°C° 0 mm 1 mps 724 mmHg 58%
01:00 +18°C° 0 mm 1 mps 724 mmHg 59%
02:00 +18°C° 0 mm 1 mps 724 mmHg 60%
03:00 +18°C° 0 mm 1 mps 724 mmHg 60%
04:00 +16°C° 0 mm 1 mps 724 mmHg 61%
05:00 +19°C° 0 mm 1 mps 724 mmHg 57%
06:00 +21°C° 0 mm 1 mps 724 mmHg 54%
07:00 +22°C° 0 mm 1 mps 725 mmHg 51%
08:00 +24°C° 0 mm 2 mps 725 mmHg 44%
09:00 +26°C° 0 mm 2 mps 725 mmHg 38%
10:00 +28°C° 0 mm 3 mps 725 mmHg 31%
11:00 +28°C° 0 mm 3 mps 725 mmHg 32%
12:00 +28°C° 0 mm 3 mps 724 mmHg 32%
13:00 +28°C° 0 mm 3 mps 724 mmHg 33%
14:00 +28°C° 0 mm 4 mps 724 mmHg 32%
15:00 +28°C° 0 mm 4 mps 724 mmHg 31%
16:00 +29°C° 0 mm 4 mps 724 mmHg 30%
17:00 +27°C° 0 mm 3 mps 724 mmHg 38%
18:00 +25°C° 0 mm 2 mps 723 mmHg 46%
19:00 +22°C° 0 mm 0 mps 723 mmHg 54%
20:00 +20°C° 0 mm 0 mps 723 mmHg 57%
21:00 +21°C° 0 mm 1 mps 723 mmHg 60%
22:00 +19°C° 0 mm 1 mps 723 mmHg 63%
23:00 +19°C° 0 mm 1 mps 723 mmHg 63%

Day after tomorrow, 18 May, Tuesday

Time Temperature Precipitation Wind Pressure Humidity
00:00 +18°C° 0 mm 1 mps 723 mmHg 63%
01:00 +18°C° 0 mm 1 mps 723 mmHg 63%
02:00 +18°C° 0 mm 1 mps 722 mmHg 65%
03:00 +16°C° 0 mm 1 mps 722 mmHg 66%
04:00 +16°C° 0 mm 1 mps 722 mmHg 67%
05:00 +17°C° 0 mm 0 mps 722 mmHg 62%
06:00 +19°C° 0 mm 0 mps 723 mmHg 58%
07:00 +21°C° 0 mm 0 mps 723 mmHg 53%
08:00 +25°C° 0 mm 1 mps 723 mmHg 46%
09:00 +27°C° 0 mm 1 mps 723 mmHg 38%
10:00 +29°C° 0 mm 2 mps 723 mmHg 31%
11:00 +29°C° 0 mm 2 mps 723 mmHg 30%
12:00 +29°C° 0 mm 3 mps 722 mmHg 28%
13:00 +30°C° 0 mm 4 mps 722 mmHg 27%
14:00 +29°C° 0 mm 4 mps 722 mmHg 28%
15:00 +29°C° 0 mm 4 mps 722 mmHg 29%
16:00 +29°C° 0 mm 4 mps 722 mmHg 30%
17:00 +27°C° 0 mm 3 mps 722 mmHg 37%
18:00 +26°C° 0 mm 3 mps 722 mmHg 45%
19:00 +24°C° 0 mm 2 mps 722 mmHg 52%
20:00 +21°C° 0 mm 2 mps 721 mmHg 60%
21:00 +19°C° 0 mm 2 mps 721 mmHg 67%
22:00 +18°C° 0 mm 2 mps 721 mmHg 75%
23:00 +17°C° 0 mm 2 mps 721 mmHg 76%

19 May, Wednesday

Time Temperature Precipitation Wind Pressure Humidity
00:00 +16°C° 0 mm 2 mps 721 mmHg 77%
01:00 +16°C° 0 mm 1 mps 721 mmHg 78%
02:00 +15°C° 0 mm 1 mps 721 mmHg 79%
03:00 +15°C° 0 mm 1 mps 722 mmHg 79%
04:00 +14°C° 0 mm 1 mps 722 mmHg 80%
05:00 +15°C° 0 mm 2 mps 722 mmHg 73%
06:00 +17°C° 0 mm 2 mps 722 mmHg 66%
07:00 +18°C° 0 mm 3 mps 723 mmHg 60%
08:00 +19°C° 0 mm 3 mps 723 mmHg 55%
09:00 +20°C° 0 mm 4 mps 723 mmHg 50%
10:00 +22°C° 0 mm 4 mps 724 mmHg 45%
11:00 +22°C° 0 mm 4 mps 724 mmHg 42%
12:00 +23°C° 0 mm 4 mps 724 mmHg 39%
13:00 +25°C° 0 mm 4 mps 724 mmHg 35%
14:00 +25°C° 0 mm 4 mps 724 mmHg 35%
15:00 +25°C° 0 mm 4 mps 724 mmHg 34%
16:00 +25°C° 0 mm 4 mps 724 mmHg 33%
17:00 +22°C° 0 mm 3 mps 724 mmHg 38%
18:00 +21°C° 0 mm 3 mps 724 mmHg 42%
19:00 +19°C° 0 mm 3 mps 724 mmHg 47%
20:00 +18°C° 0 mm 3 mps 724 mmHg 52%
21:00 +16°C° 0 mm 2 mps 724 mmHg 58%
22:00 +14°C° 0 mm 2 mps 724 mmHg 63%
23:00 +13°C° 0 mm 2 mps 724 mmHg 65%

20 May, Thursday

Time Temperature Precipitation Wind Pressure Humidity
00:00 +13°C° 0 mm 2 mps 725 mmHg 66%
01:00 +12°C° 0 mm 1 mps 725 mmHg 68%
02:00 +11°C° 0 mm 1 mps 725 mmHg 69%
03:00 +11°C° 0 mm 1 mps 725 mmHg 70%
04:00 +10°C° 0 mm 1 mps 726 mmHg 71%
05:00 +12°C° 0 mm 1 mps 726 mmHg 64%
06:00 +14°C° 0 mm 2 mps 726 mmHg 57%
07:00 +16°C° 0 mm 2 mps 726 mmHg 50%
08:00 +18°C° 0 mm 2 mps 726 mmHg 44%
09:00 +19°C° 0 mm 3 mps 726 mmHg 39%
10:00 +21°C° 0 mm 3 mps 727 mmHg 33%
11:00 +22°C° 0 mm 3 mps 726 mmHg 30%
12:00 +25°C° 0 mm 3 mps 726 mmHg 27%
13:00 +26°C° 0 mm 3 mps 726 mmHg 25%
14:00 +26°C° 0 mm 3 mps 726 mmHg 25%
15:00 +26°C° 0 mm 3 mps 726 mmHg 25%
16:00 +26°C° 0 mm 3 mps 726 mmHg 25%
17:00 +24°C° 0 mm 3 mps 725 mmHg 33%
18:00 +22°C° 0 mm 3 mps 725 mmHg 41%
19:00 +20°C° 0 mm 2 mps 725 mmHg 49%
20:00 +18°C° 0 mm 2 mps 725 mmHg 56%
21:00 +16°C° 0 mm 2 mps 725 mmHg 62%
22:00 +14°C° 0 mm 2 mps 724 mmHg 68%
23:00 +13°C° 0 mm 2 mps 725 mmHg 68%

21 May, Friday

Time Temperature Precipitation Wind Pressure Humidity
00:00 +13°C° 0 mm 1 mps 725 mmHg 68%
01:00 +13°C° 0 mm 1 mps 725 mmHg 68%
02:00 +12°C° 0 mm 1 mps 725 mmHg 66%
03:00 +12°C° 0 mm 2 mps 725 mmHg 65%
04:00 +12°C° 0 mm 2 mps 725 mmHg 64%
05:00 +14°C° 0 mm 2 mps 726 mmHg 58%
06:00 +16°C° 0 mm 2 mps 726 mmHg 53%
07:00 +18°C° 0 mm 2 mps 726 mmHg 48%
08:00 +20°C° 0 mm 3 mps 726 mmHg 42%
09:00 +21°C° 0 mm 3 mps 726 mmHg 35%
10:00 +24°C° 0 mm 3 mps 727 mmHg 29%
11:00 +25°C° 0 mm 3 mps 726 mmHg 28%
12:00 +26°C° 0 mm 4 mps 726 mmHg 26%
13:00 +27°C° 0 mm 4 mps 726 mmHg 24%
14:00 +27°C° 0 mm 4 mps 726 mmHg 25%
15:00 +27°C° 0 mm 4 mps 726 mmHg 26%
16:00 +26°C° 0 mm 4 mps 726 mmHg 26%
17:00 +25°C° 0 mm 3 mps 726 mmHg 35%
18:00 +23°C° 0 mm 2 mps 726 mmHg 43%
19:00 +20°C° 0 mm 2 mps 725 mmHg 51%
20:00 +19°C° 0 mm 2 mps 725 mmHg 54%
21:00 +17°C° 0 mm 2 mps 725 mmHg 56%
22:00 +16°C° 0 mm 2 mps 725 mmHg 59%
23:00 +15°C° 0 mm 2 mps 725 mmHg 60%
Show more

We Need Your Consent

Meteoprog and our Service Providers may store and access personal data such as cookies, device identifiers or other similar technologies on your device and process such data to personalise content and ads, as well as provide social media features and to analyse the traffic.

  • Store and/or access information on your device

    Cookies, device identifiers or other information can be stored or accessed on your device for the purposes indicated above.

  • Personalised ads and content, ad and content measurement, audience insights, and products development

    Ads and content can be personalised based on a profile. More data can be added to better personalise ads and content. Ad and content performance can be measured. Insights about the audience who saw the ads and content can be derived. Such data can be used to develop or improve user’s experience, systems and software.

By clicking ‘I Agree’ you will allow the use of indicated cookies, device identifiers, web beacons or other similar technologies. Your settings can be changed in the browser on your device.

For certain purposes, legitimate interests may be relied on, rather than consent. You can read more about this in our Privacy and Cookie Policy.